Location: Cruquius
(52.3348°N, 4.6319°E)
Time: 21:00:15
(UTC+00:00)

Cosmos 2242 Rocket - Pass Details

Date: 03 October 2021
Orbit: 618 x 651 km, 82.5° (Epoch: 25 October)

Event Time Altitude Azimuth Distance (km) Brightness Sun altitude
Rises 05:02:15 0° 192° (SSW) 2,957 6.9 -7.5°
Reaches altitude 10° 05:04:30 10° 193° (SSW) 2,053 6.1 -7.2°
Maximum altitude 05:09:04 81° 279° (W) 667 3.7 -6.5°
Drops below altitude 10° 05:13:42 10° 9° (N) 2,071 6.4 -5.8°
Sets 05:15:58 0° 11° (N) 2,985 7.2 -5.4°
